| time (UTC) | temp F | wind direction | speed MPH | gust MPH | rain 1hr in | rain 24hr in | rain mn in | humidity % | barometer mb |
| 20260506144536 | 32 | 325 | 0.0 | 0.0 | 0.00 | 0.03 | 0.00 | 100 | 1022.1 |
| 20260506143516 | 32 | 325 | 0.0 | 0.0 | 0.00 | 0.03 | 0.00 | 100 | 1022.0 |
| 20260506142516 | 31 | 325 | 0.0 | 0.0 | 0.00 | 0.03 | 0.00 | 100 | 1021.8 |
| 20260506141516 | 31 | 325 | 0.0 | 0.0 | 0.00 | 0.03 | 0.00 | 100 | 1021.8 |
| 20260506140516 | 31 | 325 | 0.0 | 0.0 | 0.00 | 0.03 | 0.00 | 100 | 1021.8 |
| 20260506135516 | 31 | 325 | 0.0 | 0.0 | 0.00 | 0.04 | 0.00 | 100 | 1021.7 |
| 20260506134516 | 31 | 325 | 0.0 | 0.0 | 0.00 | 0.04 | 0.00 | 100 | 1021.7 |
| 20260506133516 | 31 | 325 | 0.0 | 0.0 | 0.00 | 0.04 | 0.00 | 100 | 1021.5 |
| 20260506132516 | 31 | 325 | 0.0 | 0.0 | 0.00 | 0.04 | 0.00 | 100 | 1021.3 |
| 20260506131556 | 31 | 325 | 0.0 | 0.0 | 0.00 | 0.04 | 0.00 | 100 | 1021.4 |
| 20260506130516 | 31 | 325 | 0.0 | 0.0 | 0.00 | 0.04 | 0.00 | 100 | 1021.1 |
| 20260506125516 | 31 | 325 | 0.0 | 0.0 | 0.00 | 0.04 | 0.00 | 100 | 1020.7 |
| 20260506124556 | 31 | 325 | 0.0 | 0.0 | 0.00 | 0.05 | 0.00 | 100 | 1020.5 |
| 20260506123516 | 31 | 325 | 0.0 | 0.0 | 0.00 | 0.05 | 0.00 | 100 | 1020.4 |
| 20260506122516 | 31 | 325 | 0.0 | 0.0 | 0.00 | 0.05 | 0.00 | 100 | 1020.4 |
| 20260506121516 | 31 | 325 | 0.0 | 0.0 | 0.00 | 0.05 | 0.00 | 100 | 1020.4 |
| 20260506120516 | 31 | 325 | 0.0 | 0.0 | 0.00 | 0.05 | 0.00 | 100 | 1020.3 |
| 20260506115516 | 31 | 325 | 0.0 | 0.0 | 0.00 | 0.05 | 0.00 | 100 | 1020.2 |
| 20260506114536 | 31 | 325 | 0.0 | 0.0 | 0.00 | 0.05 | 0.00 | 100 | 1020.0 |
| 20260506113516 | 31 | 325 | 0.0 | 0.0 | 0.00 | 0.06 | 0.00 | 100 | 1019.9 |
| 20260506112516 | 31 | 325 | 0.0 | 0.0 | 0.00 | 0.06 | 0.00 | 100 | 1019.9 |
| 20260506111516 | 31 | 325 | 0.0 | 0.0 | 0.00 | 0.06 | 0.00 | 100 | 1019.6 |
| 20260506110516 | 31 | 325 | 0.0 | 0.0 | 0.00 | 0.07 | 0.00 | 100 | 1019.5 |
| 20260506105516 | 31 | 325 | 0.0 | 0.0 | 0.00 | 0.07 | 0.00 | 100 | 1019.5 |
| 20260506104516 | 31 | 325 | 0.0 | 0.0 | 0.00 | 0.07 | 0.00 | 100 | 1019.9 |
| 20260506103516 | 31 | 325 | 0.0 | 0.0 | 0.00 | 0.07 | 0.00 | 100 | 1019.7 |
| 20260506102516 | 31 | 325 | 0.0 | 0.0 | 0.00 | 0.07 | 0.00 | 100 | 1019.9 |
| 20260506101516 | 31 | 325 | 0.0 | 0.0 | 0.00 | 0.07 | 0.00 | 100 | 1020.3 |
| 20260506100516 | 31 | 325 | 0.0 | 0.0 | 0.00 | 0.07 | 0.00 | 100 | 1020.9 |
| 20260506095536 | 31 | 325 | 0.0 | 0.0 | 0.00 | 0.07 | 0.00 | 100 | 1020.7 |
| 20260506094516 | 31 | 325 | 0.0 | 0.0 | 0.00 | 0.07 | 0.00 | 100 | 1020.6 |
| 20260506093516 | 31 | 325 | 0.0 | 0.0 | 0.00 | 0.07 | 0.00 | 100 | 1020.8 |
| 20260506092516 | 31 | 325 | 0.0 | 0.0 | 0.00 | 0.07 | 0.00 | 100 | 1020.6 |
| 20260506091516 | 31 | 325 | 0.0 | 0.0 | 0.00 | 0.07 | 0.00 | 100 | 1020.2 |
| 20260506090516 | 31 | 325 | 0.0 | 0.0 | 0.00 | 0.07 | 0.00 | 100 | 1020.0 |
| 20260506085515 | 31 | 325 | 0.0 | 0.0 | 0.00 | 0.07 | 0.00 | 100 | 1019.9 |
| 20260506084516 | 31 | 325 | 0.0 | 0.0 | 0.00 | 0.07 | 0.00 | 100 | 1020.0 |
| 20260506083515 | 31 | 325 | 0.0 | 0.0 | 0.00 | 0.07 | 0.00 | 100 | 1020.1 |
| 20260506082516 | 31 | 325 | 0.0 | 0.0 | 0.00 | 0.07 | 0.00 | 100 | 1020.0 |
| 20260506081606 | 31 | 0.0 | 0.0 | 0.00 | 0.07 | 0.00 | 100 | 1020.2 | |
| 20260506081015 | 31 | 325 | 0.0 | 0.0 | 0.00 | 0.07 | 0.00 | 100 | 1020.3 |
| 20260506073015 | 31 | 325 | 0.0 | 0.0 | 0.00 | 0.07 | 0.00 | 100 | 1019.9 |
| 20260506072016 | 31 | 325 | 0.0 | 0.0 | 0.00 | 0.07 | 0.00 | 100 | 1019.9 |
| 20260506071016 | 31 | 325 | 0.0 | 0.0 | 0.00 | 0.07 | 0.00 | 100 | 1019.9 |
| 20260506062016 | 31 | 0 | 2.0 | 4.0 | 0.00 | 0.07 | 0.00 | 100 | 1019.5 |
| 20260506061016 | 31 | 0 | 1.0 | 3.0 | 0.00 | 0.07 | 0.00 | 100 | 1019.2 |
| 20260506051017 | 31 | 0 | 3.0 | 6.0 | 0.00 | 0.07 | 0.07 | 100 | 1018.3 |
| 20260506045017 | 31 | 338 | 1.0 | 2.0 | 0.00 | 0.07 | 0.07 | 100 | 1018.1 |
| 20260506044017 | 31 | 338 | 3.0 | 6.0 | 0.00 | 0.07 | 0.07 | 100 | 1018.0 |
| 20260506043017 | 31 | 338 | 3.0 | 5.0 | 0.00 | 0.07 | 0.07 | 100 | 1018.1 |
| 20260506042017 | 31 | 0 | 2.0 | 4.0 | 0.00 | 0.07 | 0.07 | 100 | 1018.2 |
| 20260506041017 | 31 | 338 | 2.0 | 5.0 | 0.00 | 0.08 | 0.07 | 100 | 1018.2 |
| 20260506040017 | 31 | 315 | 1.0 | 4.0 | 0.00 | 0.08 | 0.07 | 100 | 1017.9 |
| 20260506035037 | 31 | 338 | 3.0 | 8.0 | 0.00 | 0.10 | 0.07 | 100 | 1017.9 |
| 20260506034017 | 31 | 0 | 3.0 | 6.0 | 0.00 | 0.11 | 0.07 | 100 | 1017.7 |
| 20260506033017 | 31 | 338 | 4.0 | 8.0 | 0.00 | 0.12 | 0.07 | 100 | 1017.5 |
| 20260506032016 | 31 | 0 | 4.0 | 8.0 | 0.00 | 0.13 | 0.07 | 100 | 1017.2 |
| 20260506031017 | 31 | 23 | 2.0 | 6.0 | 0.00 | 0.14 | 0.07 | 100 | 1016.8 |
| 20260506030037 | 31 | 338 | 6.0 | 9.0 | 0.00 | 0.15 | 0.07 | 100 | 1016.7 |
| 20260506025016 | 31 | 0 | 5.0 | 9.0 | 0.00 | 0.15 | 0.07 | 100 | 1016.4 |
| 20260506024017 | 31 | 338 | 5.0 | 9.0 | 0.00 | 0.15 | 0.07 | 100 | 1016.3 |
| 20260506023036 | 31 | 338 | 4.0 | 8.0 | 0.00 | 0.15 | 0.07 | 100 | 1015.7 |
| 20260506022017 | 31 | 338 | 6.0 | 10.0 | 0.00 | 0.15 | 0.07 | 100 | 1015.5 |
| 20260506021057 | 31 | 338 | 4.0 | 8.0 | 0.00 | 0.15 | 0.07 | 100 | 1015.0 |
| 20260506020036 | 31 | 338 | 4.0 | 8.0 | 0.00 | 0.15 | 0.07 | 100 | 1014.8 |
| 20260506015037 | 31 | 338 | 7.0 | 13.0 | 0.00 | 0.15 | 0.07 | 100 | 1014.7 |
| 20260506014017 | 31 | 338 | 7.0 | 11.0 | 0.00 | 0.15 | 0.07 | 100 | 1014.4 |
| 20260506013016 | 31 | 315 | 5.0 | 9.0 | 0.00 | 0.15 | 0.07 | 100 | 1014.9 |
| 20260506012017 | 31 | 315 | 6.0 | 11.0 | 0.00 | 0.15 | 0.07 | 100 | 1014.8 |
| 20260506011017 | 31 | 315 | 5.0 | 9.0 | 0.00 | 0.15 | 0.07 | 100 | 1014.6 |
| 20260506010016 | 31 | 338 | 7.0 | 12.0 | 0.00 | 0.15 | 0.07 | 100 | 1014.4 |
| 20260506005017 | 31 | 338 | 7.0 | 14.0 | 0.00 | 0.15 | 0.07 | 100 | 1014.5 |
| 20260506004017 | 31 | 315 | 7.0 | 13.0 | 0.00 | 0.15 | 0.07 | 100 | 1014.3 |
| 20260506003017 | 31 | 338 | 8.0 | 14.0 | 0.00 | 0.15 | 0.07 | 99 | 1014.1 |
| 20260506002017 | 31 | 338 | 8.0 | 17.0 | 0.00 | 0.18 | 0.07 | 99 | 1013.8 |
| 20260506001017 | 31 | 338 | 8.0 | 15.0 | 0.00 | 0.18 | 0.07 | 99 | 1013.7 |
| 20260506000016 | 31 | 338 | 7.0 | 14.0 | 0.00 | 0.19 | 0.07 | 99 | 1013.5 |
| 20260505235037 | 32 | 338 | 8.0 | 16.0 | 0.00 | 0.19 | 0.07 | 99 | 1013.7 |
| 20260505234016 | 32 | 338 | 9.0 | 16.0 | 0.00 | 0.19 | 0.07 | 99 | 1013.5 |
| 20260505232036 | 32 | 338 | 12.0 | 16.0 | 0.00 | 0.19 | 0.07 | 98 | 1013.6 |
| 20260505231016 | 32 | 338 | 14.0 | 21.0 | 0.00 | 0.19 | 0.07 | 97 | 1013.2 |
| 20260505230016 | 32 | 0 | 12.0 | 20.0 | 0.01 | 0.19 | 0.07 | 97 | 1012.9 |
| 20260505225016 | 33 | 338 | 12.0 | 19.0 | 0.01 | 0.19 | 0.07 | 96 | 1013.3 |
| 20260505224016 | 33 | 338 | 13.0 | 21.0 | 0.01 | 0.19 | 0.07 | 96 | 1013.5 |
| 20260505223016 | 33 | 338 | 14.0 | 23.0 | 0.01 | 0.19 | 0.07 | 96 | 1013.1 |
| 20260505222036 | 34 | 338 | 13.0 | 22.0 | 0.01 | 0.19 | 0.07 | 94 | 1013.3 |
| 20260505221016 | 37 | 338 | 8.0 | 18.0 | 0.01 | 0.19 | 0.07 | 94 | 1013.6 |
| 20260505220017 | 37 | 23 | 6.0 | 11.0 | 0.00 | 0.18 | 0.06 | 94 | 1013.4 |
| 20260505215016 | 38 | 23 | 7.0 | 15.0 | 0.00 | 0.18 | 0.06 | 93 | 1013.8 |
| 20260505214017 | 38 | 45 | 7.0 | 13.0 | 0.01 | 0.18 | 0.06 | 92 | 1013.8 |
| 20260505213016 | 39 | 315 | 5.0 | 9.0 | 0.01 | 0.18 | 0.06 | 93 | 1014.2 |
| 20260505212037 | 39 | 45 | 3.0 | 8.0 | 0.01 | 0.18 | 0.06 | 94 | 1014.1 |
| 20260505211017 | 38 | 23 | 5.0 | 9.0 | 0.01 | 0.18 | 0.06 | 94 | 1013.8 |
| 20260505210016 | 38 | 68 | 5.0 | 10.0 | 0.01 | 0.18 | 0.06 | 95 | 1014.1 |
| 20260505205016 | 38 | 23 | 6.0 | 10.0 | 0.01 | 0.18 | 0.06 | 94 | 1014.9 |
| 20260505204036 | 38 | 45 | 5.0 | 9.0 | 0.00 | 0.17 | 0.05 | 94 | 1015.4 |
| 20260505203016 | 38 | 45 | 6.0 | 12.0 | 0.00 | 0.17 | 0.05 | 95 | 1015.6 |
| 20260505202016 | 38 | 23 | 7.0 | 11.0 | 0.00 | 0.17 | 0.05 | 94 | 1015.2 |
| 20260505201016 | 38 | 45 | 5.0 | 10.0 | 0.00 | 0.17 | 0.05 | 94 | 1015.1 |
| 20260505200016 | 38 | 0 | 6.0 | 10.0 | 0.00 | 0.17 | 0.05 | 94 | 1015.0 |
| 20260505195056 | 38 | 68 | 4.0 | 9.0 | 0.00 | 0.17 | 0.05 | 94 | 1015.1 |
| 20260505194017 | 38 | 90 | 3.0 | 8.0 | 0.00 | 0.17 | 0.05 | 95 | 1015.0 |
| 20260505193016 | 38 | 90 | 4.0 | 8.0 | 0.00 | 0.17 | 0.05 | 93 | 1014.9 |
| 20260505192016 | 38 | 90 | 4.0 | 10.0 | 0.00 | 0.17 | 0.05 | 93 | 1014.8 |
| 20260505191016 | 38 | 90 | 1.0 | 3.0 | 0.00 | 0.17 | 0.05 | 95 | 1014.9 |
| 20260505190036 | 38 | 338 | 4.0 | 5.0 | 0.00 | 0.17 | 0.05 | 95 | 1014.8 |
| 20260505185016 | 37 | 45 | 4.0 | 7.0 | 0.00 | 0.17 | 0.05 | 96 | 1015.0 |
| 20260505184016 | 37 | 45 | 7.0 | 10.0 | 0.00 | 0.17 | 0.05 | 95 | 1015.0 |
| 20260505183016 | 37 | 45 | 3.0 | 10.0 | 0.00 | 0.17 | 0.05 | 96 | 1015.2 |
| 20260505182017 | 37 | 45 | 4.0 | 9.0 | 0.00 | 0.17 | 0.05 | 95 | 1015.2 |
| 20260505181016 | 37 | 23 | 5.0 | 10.0 | 0.00 | 0.17 | 0.05 | 95 | 1015.0 |
| 20260505180036 | 37 | 0 | 4.0 | 9.0 | 0.00 | 0.17 | 0.05 | 95 | 1015.1 |
| 20260505175016 | 37 | 68 | 4.0 | 8.0 | 0.00 | 0.17 | 0.05 | 95 | 1015.2 |
| 20260505174016 | 37 | 68 | 3.0 | 6.0 | 0.00 | 0.17 | 0.05 | 95 | 1015.1 |
| 20260505173016 | 37 | 45 | 3.0 | 6.0 | 0.00 | 0.17 | 0.05 | 95 | 1015.1 |
| 20260505172016 | 37 | 45 | 3.0 | 7.0 | 0.00 | 0.17 | 0.05 | 95 | 1015.1 |
| 20260505171016 | 37 | 45 | 3.0 | 7.0 | 0.00 | 0.17 | 0.05 | 95 | 1015.0 |
| 20260505170016 | 36 | 338 | 3.0 | 7.0 | 0.01 | 0.17 | 0.05 | 95 | 1014.8 |
| 20260505165016 | 36 | 45 | 4.0 | 7.0 | 0.01 | 0.17 | 0.05 | 95 | 1014.8 |
| 20260505164016 | 36 | 45 | 3.0 | 7.0 | 0.01 | 0.17 | 0.05 | 96 | 1014.8 |
| 20260505163016 | 36 | 68 | 3.0 | 6.0 | 0.01 | 0.17 | 0.05 | 96 | 1014.9 |
| 20260505162016 | 36 | 68 | 4.0 | 9.0 | 0.01 | 0.17 | 0.05 | 96 | 1014.9 |
| 20260505161016 | 36 | 23 | 3.0 | 8.0 | 0.01 | 0.17 | 0.05 | 96 | 1014.8 |
| 20260505153016 | 35 | 23 | 3.0 | 9.0 | 0.00 | 0.16 | 0.04 | 96 | 1014.7 |
| 20260505152036 | 35 | 338 | 3.0 | 5.0 | 0.00 | 0.16 | 0.04 | 96 | 1014.6 |
| 20260505151036 | 35 | 293 | 3.0 | 5.0 | 0.00 | 0.16 | 0.04 | 96 | 1015.0 |